Location: Newark
(60.6561°N, 46.5772°E)
Time: 09:41:02
(UTC+00:00)

Vanguard 2 Rocket - Pass Details

Date: 31 October 2019
Orbit: 554 x 3326 km, 32.9° (Epoch: 17 November)

Event Time Altitude Azimuth Distance (km) Brightness Sun altitude
Rises 01:47:10 0° 178° (S) 5,232 10.8 -18.3°
Reaches altitude 10° 01:56:13 10° 142° (SE) 5,118 11.2 -17.2°
Maximum altitude 01:57:42 10° 136° (SE) 5,225 11.3 -17.0°
Drops below altitude 10° 01:59:15 10° 130° (SE) 5,365 11.5 -16.8°
Sets 02:11:18 0° 97° (E) 7,092 13.3 -15.3°
